OBJECT BH (43813 NORAD) Tracking and Keplerian Element Data

This shows tracking and keplerian element data for the satellite.

Feedback or suggestion? Click here.




ElementValue
Catalog43813
NameOBJECT BH
Epoch Orbit643
Epoch Day17.91933295
Epoch Year2019
RAAN91.6873
Inclination97.7696
Eccentricity0.0015287
Argument of Perigee104.4376
Mean Anonmoly255.8542
Mean Motion14.95369909
Decay Rate1.7E-07
L11 43813U 18099BH 19017.91933295 .00000017 00000-0 68419-5 0 9996
L22 43813 97.7696 91.6873 0015287 104.4376 255.8542 14.95369909 6436

Live tracking and technical data element details for OBJECT BH (NORAD 43813). OBJECT BH can be tracked NOW for your location showing map with azimuth and elevation plus other details from your city location.

Track the satellite on the map from your city or location and see movement details for azimuth, elevation, latitude, longitude, range, height, and movement on the map or in text.







IsCatalogInMostPopularTable: catalog: 43813, numindb: 97
Update: records affected: 1



GetName: 43813 OBJECT BH

Hit Count: updated at: Sat, 20 Jul 2019 22:18:11 GMT